Location: Boleita
(10.4833°N, 66.8167°W)
Time: 01:54:27
(UTC+00:00)

Meteor 2-21 Rocket - Pass Details

Date: 08 November 2025
Orbit: 935 x 968 km, 82.6° (Epoch: 09 December)

Event Time Altitude Azimuth Distance (km) Brightness Sun altitude
Rises 09:08:39 0° 191° (S) 3,642 7.5 -17.8°
Reaches altitude 10° 09:11:11 10° 194° (SSW) 2,692 6.8 -17.2°
Maximum altitude 09:17:16 62° 274° (W) 1,064 4.4 -15.7°
Drops below altitude 10° 09:23:18 10° 355° (N) 2,670 6.6 -14.3°
Sets 09:25:49 0° 358° (N) 3,610 7.3 -13.7°
